FW7738 Weather Reports


time (UTC)temp
F
wind
direction
speed
knots
gust
knots
rain 1hr
in
rain 24hr
in
rain mn
in
humidity
%
barometer
mb
20260901032016 75 10 1.7 2.6 0.00 0.00 0.00 83 1017.1
20260901031031 75 5 1.7 2.6 0.00 0.00 0.00 83 1017.2
20260901030026 75 358 1.7 2.6 0.00 0.00 0.00 84 1017.1
20260901025022 75 13 0.9 1.7 0.00 0.00 0.00 84 1017.0
20260901024017 75 6 1.7 2.6 0.00 0.00 0.00 84 1017.3
20260901023033 75 354 1.7 2.6 0.00 0.00 0.00 85 1017.2
20260901022028 75 4 1.7 1.7 0.00 0.00 0.00 85 1017.5
20260901021023 76 11 1.7 2.6 0.00 0.00 0.00 85 1017.4
20260901020019 76 12 0.9 2.6 0.00 0.00 0.00 84 1017.5
20260901015055 76 22 0.9 3.5 0.00 0.00 0.00 84 1017.6
20260901014030 76 13 1.7 3.5 0.00 0.00 0.00 84 1017.5
20260901013045 76 10 0.9 1.7 0.00 0.00 0.00 84 1017.6
20260901012021 76 14 0.9 1.7 0.00 0.00 0.00 84 1017.8
20260901011016 76 0 0.9 1.7 0.00 0.00 0.00 83 1017.9
20260901010032 76 359 0.9 1.7 0.00 0.00 0.00 84 1017.9
20260901005107 76 7 0.9 1.7 0.00 0.00 0.00 84 1018.0
20260901004023 76 3 1.7 3.5 0.00 0.00 0.00 83 1018.0
20260901003018 77 2 0.9 1.7 0.00 0.00 0.00 83 1018.1
20260901002033 77 8 0.9 1.7 0.00 0.00 0.00 83 1018.2
20260901001029 77 351 0.9 1.7 0.00 0.00 0.00 83 1018.2
20260901000024 77 336 0.0 0.9 0.00 0.00 0.00 83 1018.1
20260831235019 77 39 0.0 1.7 0.00 0.00 0.00 83 1018.3
20260831234035 77 25 2.6 5.2 0.00 0.00 0.00 82 1018.3
20260831233029 77 25 2.6 5.2 0.00 0.00 0.00 82 1018.4
20260831232025 77 36 2.6 5.2 0.00 0.00 0.00 82 1018.2
20260831231020 77 29 0.0 0.9 0.00 0.00 0.00 83 1018.2
20260831230016 77 127 0.0 0.9 0.00 0.00 0.00 83 1018.2
20260831225031 77 18 0.9 3.5 0.00 0.00 0.00 83 1018.2
20260831224047 77 9 1.7 5.2 0.00 0.00 0.00 84 1018.1
20260831223022 77 20 2.6 5.2 0.00 0.00 0.00 84 1018.1
20260831222017 77 19 2.6 5.2 0.00 0.00 0.00 84 1018.0
20260831221052 77 22 2.6 3.5 0.00 0.00 0.00 84 1018.0
20260831220028 77 25 0.9 1.7 0.00 0.00 0.00 83 1018.0
20260831215023 77 23 0.9 2.6 0.00 0.00 0.00 83 1017.8
20260831214038 77 29 0.9 2.6 0.00 0.00 0.00 83 1017.8
20260831213034 77 30 0.9 2.6 0.00 0.00 0.00 83 1017.8
20260831212028 77 24 1.7 3.5 0.00 0.00 0.00 83 1017.8
20260831211024 77 48 0.0 1.7 0.00 0.00 0.00 84 1017.7
20260831210019 77 49 1.7 3.5 0.00 0.00 0.00 84 1017.5
20260831205055 77 54 0.9 1.7 0.00 0.00 0.00 84 1017.5
20260831204030 77 55 0.9 2.6 0.00 0.00 0.00 84 1017.4
20260831203045 77 54 0.9 3.5 0.00 0.00 0.00 84 1017.4
20260831202020 77 65 0.9 2.6 0.00 0.00 0.00 84 1017.2
20260831201016 76 69 0.0 1.7 0.00 0.00 0.00 84 1017.1
20260831200032 76 85 0.9 2.6 0.00 0.00 0.00 84 1017.0
20260831195026 76 78 0.9 2.6 0.00 0.00 0.00 84 1016.8
20260831194022 76 55 0.9 2.6 0.00 0.00 0.00 85 1016.6
20260831193017 76 65 0.9 2.6 0.00 0.00 0.00 84 1016.3
20260831192033 77 67 0.9 3.5 0.00 0.00 0.00 84 1016.3
20260831191028 77 66 0.0 3.5 0.00 0.00 0.00 83 1016.1
20260831190023 77 63 0.9 3.5 0.00 0.00 0.00 81 1016.1
20260831185038 77 68 1.7 6.1 0.00 0.00 0.00 81 1016.0
20260831184034 78 88 1.7 7.0 0.00 0.00 0.00 80 1015.9
20260831183029 78 82 1.7 5.2 0.00 0.00 0.00 79 1015.8
20260831182024 78 76 2.6 7.0 0.00 0.00 0.00 78 1015.9
20260831181019 78 92 2.6 7.0 0.00 0.00 0.00 78 1015.7
20260831180035 78 74 1.7 6.1 0.00 0.00 0.00 78 1015.7
20260831175030 79 65 0.9 2.6 0.00 0.00 0.00 77 1015.6
20260831174025 79 71 1.7 6.1 0.00 0.00 0.00 75 1015.6
20260831173021 79 72 2.6 7.0 0.00 0.00 0.00 76 1015.6
20260831172016 79 65 1.7 7.8 0.00 0.00 0.00 76 1015.7
20260831171031 79 67 1.7 6.1 0.00 0.00 0.00 76 1015.5
20260831170027 79 78 3.5 7.0 0.00 0.00 0.00 77 1015.5
20260831165022 79 98 4.3 9.6 0.00 0.00 0.00 77 1015.5
20260831164018 79 112 5.2 9.6 0.00 0.00 0.00 77 1015.8
20260831163033 80 122 5.2 9.6 0.00 0.00 0.00 77 1015.8
20260831162049 79 117 7.0 11.3 0.00 0.00 0.00 77 1016.0
20260831161024 80 118 6.1 12.2 0.00 0.00 0.00 77 1015.8
20260831160020 80 89 3.5 11.3 0.00 0.00 0.00 77 1015.8
20260831155035 80 107 7.0 13.0 0.00 0.00 0.00 77 1016.0
20260831154031 80 109 7.8 13.0 0.00 0.00 0.00 77 1016.0
20260831153025 80 104 6.1 11.3 0.00 0.00 0.00 75 1016.1
20260831152021 80 106 7.0 13.0 0.00 0.00 0.00 76 1016.2
20260831151016 80 89 6.1 13.0 0.00 0.00 0.00 77 1016.2
20260831150031 81 110 9.6 15.6 0.00 0.00 0.00 76 1016.0
20260831145047 80 98 10.4 16.5 0.00 0.00 0.00 77 1016.2
20260831144022 80 95 7.8 16.5 0.00 0.00 0.00 78 1016.2
20260831143017 81 90 6.1 15.6 0.00 0.00 0.00 76 1016.3
20260831142032 81 84 7.8 16.5 0.00 0.00 0.00 76 1016.2
20260831141028 81 86 10.4 16.5 0.00 0.00 0.00 75 1016.1
20260831140023 81 89 6.1 14.8 0.00 0.00 0.00 74 1016.3
20260831135018 82 80 7.0 19.1 0.00 0.00 0.00 73 1016.3
20260831134034 82 69 6.1 13.9 0.00 0.00 0.00 74 1016.4
20260831133050 82 73 7.0 15.6 0.00 0.00 0.00 71 1016.2
20260831132025 82 75 6.1 14.8 0.00 0.00 0.00 72 1016.3
20260831131020 83 66 7.0 19.1 0.00 0.00 0.00 70 1016.3
20260831130035 83 67 7.0 18.2 0.00 0.00 0.00 70 1016.2
20260831125031 82 74 7.0 16.5 0.00 0.00 0.00 70 1016.5
20260831124026 83 64 7.0 18.2 0.00 0.00 0.00 67 1016.6
20260831123023 83 71 6.1 16.5 0.00 0.00 0.00 67 1016.6
20260831122037 83 88 6.1 16.5 0.00 0.00 0.00 66 1016.6
20260831121032 84 73 4.3 11.3 0.00 0.00 0.00 69 1016.7
20260831120028 83 70 5.2 12.2 0.00 0.00 0.00 69 1016.8
20260831115043 83 83 6.1 13.0 0.00 0.00 0.00 70 1016.9
20260831114018 83 87 7.0 16.5 0.00 0.00 0.00 69 1017.0
20260831113034 83 94 7.8 15.6 0.00 0.00 0.00 67 1016.8
20260831112029 82 81 6.1 16.5 0.00 0.00 0.00 70 1017.0
20260831111024 82 83 6.1 14.8 0.00 0.00 0.00 73 1017.0
20260831110040 82 87 9.6 19.1 0.00 0.00 0.00 74 1017.1
20260831105035 82 94 7.0 15.6 0.00 0.00 0.00 72 1017.1
20260831104050 82 79 6.1 13.0 0.00 0.00 0.00 72 1017.2
20260831103045 82 85 8.7 14.8 0.00 0.00 0.00 72 1017.2
20260831102020 83 88 7.8 15.6 0.00 0.00 0.00 71 1017.1
20260831101016 83 82 6.1 16.5 0.00 0.00 0.00 68 1017.0
20260831100031 83 112 6.1 12.2 0.00 0.00 0.00 68 1016.9
20260831095026 82 101 6.1 13.9 0.00 0.00 0.00 70 1016.9
20260831094021 82 85 5.2 13.0 0.00 0.00 0.00 69 1017.0
20260831093017 82 80 4.3 11.3 0.00 0.00 0.00 70 1016.9
20260831092033 81 71 3.5 7.8 0.00 0.00 0.00 70 1016.8
20260831091028 81 73 4.3 12.2 0.00 0.00 0.00 69 1016.6
20260831090023 81 59 4.3 7.8 0.00 0.00 0.00 70 1016.5
20260831085018 80 60 3.5 7.8 0.00 0.00 0.00 71 1016.5
20260831084034 81 64 0.9 5.2 0.00 0.00 0.00 68 1016.5
20260831083029 79 80 1.7 6.1 0.00 0.00 0.00 71 1016.5
20260831082024 81 98 1.7 3.5 0.00 0.00 0.00 69 1016.4
20260831081019 80 87 0.9 3.5 0.00 0.00 0.00 71 1016.4
20260831080034 79 45 0.9 3.5 0.00 0.00 0.00 71 1016.2
20260831075030 79 10 0.0 0.9 0.00 0.00 0.00 71 1016.2
20260831074026 79 234 0.0 1.7 0.00 0.00 0.00 70 1016.3
20260831073021 78 264 0.9 1.7 0.00 0.00 0.00 70 1016.2
20260831072015 77 281 0.9 2.6 0.00 0.00 0.00 72 1016.1
20260831071031 76 279 0.9 1.7 0.00 0.00 0.00 72 1015.9
20260831070026 76 262 0.9 1.7 0.00 0.00 0.00 69 1015.8
20260831065021 75 339 0.0 0.9 0.00 0.00 0.00 69 1015.7
20260831064016 74 313 0.0 0.9 0.00 0.00 0.00 69 1015.7
20260831063032 74 320 0.9 1.7 0.00 0.00 0.00 68 1015.6
20260831062027 72 324 0.9 1.7 0.00 0.00 0.00 67 1015.4
20260831061043 72 0.0 0.0 0.00 0.00 0.00 71 1015.4
20260831060018 71 0.0 0.0 0.00 0.00 0.00 72 1015.2
20260831055033 71 0.0 0.0 0.00 0.00 0.00 73 1015.0
20260831054029 72 0.0 0.0 0.00 0.00 0.00 71 1015.0
20260831053024 72 0.0 0.0 0.00 0.00 0.00 71 1015.1
20260831052020 72 313 0.0 0.9 0.00 0.00 0.00 69 1014.8
20260831051035 72 291 1.7 2.6 0.00 0.00 0.00 69 1014.6
20260831050050 71 311 0.9 1.7 0.00 0.00 0.00 71 1014.7
20260831045025 71 0.0 0.0 0.00 0.00 0.00 74 1014.7
20260831044020 71 318 0.0 1.7 0.00 0.00 0.00 74 1014.7
20260831043015 71 322 1.7 2.6 0.00 0.00 0.00 75 1014.6
20260831042031 70 337 0.9 1.7 0.00 0.00 0.00 77 1014.5
20260831041026 71 338 0.9 2.6 0.00 0.00 0.00 79 1014.5
20260831040021 71 322 0.9 2.6 0.00 0.00 0.00 80 1014.5
20260831035036 71 332 0.9 1.7 0.00 0.00 0.00 81 1014.6
20260831034032 72 0.0 0.0 0.00 0.00 0.00 80 1014.5
20260831033027 72 0.0 0.0 0.00 0.00 0.00 79 1014.6